,�O�C���x,�����t���O,�O�C���x,�����t���O,�󒲎����x,�����t���O,�󒲎����x,�����t���O,��󒲎����x,�����t���O,����,�����t���O
2004/1/1 0:00,9.9,0,58,0,19.9,0,55.1,0,15.9,0,13.6,0
2004/1/1 0:15,10.1,0,58,0,19.8,0,55.2,0,15.9,0,13.7,0
2004/1/1 0:30,10.1,0,59,0,19.7,0,55.3,0,16,0,13.7,0
2004/1/1 0:45,10,0,60,0,19.9,0,55.6,0,15.9,0,13.7,0
2004/1/1 1:00,10,0,59,0,19.9,0,55.3,0,15.9,0,13.7,0
2004/1/1 1:15,10,0,59,0,20,0,55,0,15.9,0,13.8,0
2004/1/1 1:30,10.1,0,57,0,20,0,54.8,0,15.9,0,13.8,0
2004/1/1 1:45,10.2,0,56,0,20,0,54.7,0,15.9,0,13.8,0
2004/1/1 2:00,10.3,0,54,0,19.9,0,54.5,0,15.9,0,13.8,0
2004/1/1 2:15,10.3,0,52,0,19.9,0,54.4,0,15.9,0,13.9,0
2004/1/1 2:30,10.2,0,51,0,19.9,0,53.8,0,15.9,0,13.9,0
2004/1/1 2:45,10.2,0,51,0,19.8,0,53.3,0,15.9,0,13.9,0
2004/1/1 3:00,10.3,0,51,0,19.7,0,53.1,0,15.9,0,13.5,0
2004/1/1 3:15,10.2,0,52,0,19.6,0,52.8,0,15.8,0,13.5,0
2004/1/1 3:30,10.2,0,49,0,19.5,0,52.3,0,15.8,0,13.5,0
2004/1/1 3:45,10,0,51,0,19.5,0,52.1,0,15.8,0,13.6,0
2004/1/1 4:00,9.9,0,52,0,19.5,0,51.8,0,15.8,0,13.6,0
2004/1/1 4:15,10,0,52,0,19.5,0,51.6,0,15.8,0,13.6,0
2004/1/1 4:30,10.1,0,51,0,19.5,0,51.3,0,15.8,0,13.6,0
2004/1/1 4:45,10.2,0,50,0,19.4,0,51.2,0,15.8,0,13.7,0
2004/1/1 5:00,10.2,0,51,0,19.4,0,51,0,15.8,0,13.7,0
2004/1/1 5:15,10.2,0,52,0,19.3,0,50.8,0,15.7,0,13.7,0
2004/1/1 5:30,10.2,0,52,0,19.3,0,50.7,0,15.7,0,13.7,0
2004/1/1 5:45,10.2,0,53,0,19.3,0,50.8,0,15.7,0,13.8,0
2004/1/1 6:00,10.2,0,52,0,19.3,0,50.7,0,15.7,0,13.8,0
2004/1/1 6:15,10.1,0,51,0,19.3,0,50.7,0,15.7,0,13.8,0
2004/1/1 6:30,10.2,0,51,0,19.3,0,50.6,0,15.7,0,13.8,0
2004/1/1 6:45,10.2,0,52,0,19.3,0,50.5,0,15.7,0,13.9,0
2004/1/1 7:00,10.2,0,51,0,19.2,0,50.4,0,15.7,0,13.9,0
2004/1/1 7:15,10.2,0,49,0,19.2,0,50.4,0,15.6,0,13.9,0
2004/1/1 7:30,10.2,0,51,0,19.2,0,50.3,0,15.6,0,13.9,0
2004/1/1 7:45,10.2,0,51,0,19.2,0,50.3,0,15.6,0,14,0
2004/1/1 8:00,10.2,0,52,0,19.2,0,50.2,0,15.6,0,14,0
2004/1/1 8:15,10.2,0,52,0,19.2,0,50.2,0,15.6,0,14,0
2004/1/1 8:30,10.3,0,51,0,19.2,0,50,0,15.6,0,14,0
2004/1/1 8:45,10.3,0,51,0,19.1,0,49.9,0,15.6,0,14,0
2004/1/1 9:00,10.3,0,51,0,19.1,0,49.9,0,15.6,0,14.1,0
2004/1/1 9:15,10.4,0,51,0,19.2,0,49.8,0,15.6,0,14.1,0
2004/1/1 9:30,10.6,0,51,0,19.3,0,50.2,0,15.6,0,14.1,0
2004/1/1 9:45,10.8,0,50,0,19.5,0,49.9,0,15.6,0,14.1,0
2004/1/1 10:00,11,0,49,0,19.5,0,49.4,0,15.6,0,14.1,0
2004/1/1 10:15,11.1,0,48,0,19.6,0,49.4,0,15.6,0,14.2,0
2004/1/1 10:30,11,0,46,0,19.7,0,49.5,0,15.6,0,14.2,0
2004/1/1 10:45,11.2,0,48,0,19.7,0,49,0,15.6,0,14.2,0
2004/1/1 11:00,11.1,0,48,0,19.8,0,48.8,0,15.6,0,14.2,0
2004/1/1 11:15,11.1,0,49,0,19.9,0,48.4,0,15.6,0,14.2,0
2004/1/1 11:30,11.2,0,47,0,20,0,48,0,15.6,0,14.3,0
2004/1/1 11:45,11.4,0,44,0,20.1,0,48.1,0,15.6,0,14.3,0
2004/1/1 12:00,11.5,0,45,0,20.4,0,47.5,0,15.6,0,14.3,0
2004/1/1 12:15,11.6,0,46,0,20.6,0,47.9,0,15.6,0,14.3,0
2004/1/1 12:30,11.7,0,43,0,20.9,0,49.8,0,15.6,0,14.3,0
2004/1/1 12:45,11.9,0,47,0,21,0,50.1,0,15.6,0,13.8,0
2004/1/1 13:00,11.9,0,45,0,20.9,0,50.5,0,15.6,0,13.8,0
2004/1/1 13:15,11.7,0,47,0,20.7,0,50.5,0,15.6,0,13.9,0
2004/1/1 13:30,11.5,0,45,0,20.8,0,51.5,0,15.7,0,13.9,0
2004/1/1 13:45,11.7,0,48,0,20.7,0,52,0,15.7,0,13.9,0
2004/1/1 14:00,11.7,0,50,0,20.7,0,52.1,0,15.7,0,13.9,0
2004/1/1 14:15,11.6,0,50,0,20.4,0,52.1,0,15.7,0,13.9,0
2004/1/1 14:30,11.7,0,49,0,20.2,0,52.2,0,15.7,0,14,0
2004/1/1 14:45,11.7,0,48,0,20.1,0,52.2,0,15.7,0,13.6,0
2004/1/1 15:00,11.7,0,50,0,20,0,52.3,0,15.7,0,13.6,0
2004/1/1 15:15,11.7,0,50,0,20,0,52.4,0,15.8,0,13.6,0
2004/1/1 15:30,11.6,0,51,0,19.9,0,52.6,0,15.8,0,13.7,0
2004/1/1 15:45,11.6,0,51,0,19.9,0,52.6,0,15.8,0,13.7,0
2004/1/1 16:00,11.6,0,51,0,19.9,0,52.7,0,15.8,0,13.7,0
2004/1/1 16:15,11.5,0,52,0,19.9,0,52.9,0,15.9,0,13.7,0
2004/1/1 16:30,11.4,0,52,0,19.9,0,53.1,0,15.9,0,13.7,0
2004/1/1 16:45,11.5,0,53,0,19.9,0,53,0,15.8,0,13.8,0
2004/1/1 17:00,11.3,0,53,0,19.9,0,53.4,0,15.9,0,13.8,0
2004/1/1 17:15,11.2,0,53,0,19.8,0,53.3,0,15.8,0,13.8,0
2004/1/1 17:30,11.1,0,53,0,19.8,0,53.4,0,15.8,0,13.8,0
2004/1/1 17:45,11,0,54,0,19.8,0,53.4,0,15.8,0,13.9,0
2004/1/1 18:00,11,0,54,0,19.8,0,53.3,0,15.8,0,13.9,0
2004/1/1 18:15,10.8,0,56,0,19.8,0,53.4,0,15.8,0,13.9,0
2004/1/1 18:30,10.7,0,57,0,19.8,0,53.3,0,15.8,0,13.9,0
2004/1/1 18:45,10.6,0,58,0,19.7,0,53.5,0,15.8,0,14,0
2004/1/1 19:00,10.4,0,58,0,19.7,0,53.4,0,15.8,0,14,0
2004/1/1 19:15,10.2,0,58,0,19.7,0,52.9,0,15.8,0,14,0
2004/1/1 19:30,10.2,0,58,0,19.8,0,55.2,0,15.8,0,14,0
2004/1/1 19:45,10.4,0,57,0,19.8,0,53.4,0,15.8,0,13.8,0
2004/1/1 20:00,10.4,0,57,0,19.8,0,53.4,0,15.8,0,13.8,0
2004/1/1 20:15,10.4,0,57,0,19.8,0,53.3,0,15.8,0,13.8,0
2004/1/1 20:30,10.4,0,58,0,19.8,0,53.4,0,15.8,0,13.8,0
2004/1/1 20:45,10.4,0,57,0,19.9,0,53.2,0,15.8,0,13.9,0
2004/1/1 21:00,10.5,0,57,0,19.9,0,53,0,15.8,0,13.9,0
2004/1/1 21:15,10.5,0,57,0,19.9,0,53.4,0,15.8,0,13.9,0
2004/1/1 21:30,10.4,0,57,0,19.9,0,53.3,0,15.8,0,13.9,0
2004/1/1 21:45,10.5,0,57,0,19.8,0,53.5,0,15.8,0,13.9,0
2004/1/1 22:00,10.4,0,58,0,19.8,0,53.6,0,15.8,0,14,0
2004/1/1 22:15,10.1,0,59,0,19.8,0,53.5,0,15.8,0,14,0
2004/1/1 22:30,9.9,0,60,0,19.8,0,53.4,0,15.8,0,14,0
2004/1/1 22:45,10,0,60,0,19.8,0,52.9,0,15.7,0,14,0
2004/1/1 23:00,9.8,0,61,0,19.8,0,53.2,0,15.8,0,14,0
2004/1/1 23:15,9.7,0,62,0,19.7,0,53.3,0,15.7,0,14.1,0
2004/1/1 23:30,9.6,0,62,0,19.7,0,53.4,0,15.8,0,14.1,0
2004/1/1 23:45,9.6,0,62,0,19.8,0,53.8,0,15.8,0,14.1,0
2004/1/2 0:00,9.7,0,62,0,19.7,0,54,0,15.8,0,14.1,0
2004/1/2 0:15,9.7,0,62,0,19.8,0,55.7,0,15.8,0,14.1,0
2004/1/2 0:30,9.5,0,63,0,19.8,0,56.4,0,15.8,0,14.2,0
2004/1/2 0:45,9.6,0,63,0,19.8,0,56.1,0,15.8,0,14.2,0
2004/1/2 1:00,9.8,0,63,0,19.8,0,55.7,0,15.8,0,14.2,0
2004/1/2 1:15,9.8,0,62,0,19.8,0,55.5,0,15.8,0,14.2,0
2004/1/2 1:30,9.9,0,62,0,19.8,0,55.3,0,15.8,0,14.2,0
2004/1/2 1:45,9.7,0,62,0,19.8,0,55.1,0,15.7,0,14.3,0
2004/1/2 2:00,9.7,0,62,0,19.7,0,54.9,0,15.8,0,14.3,0
2004/1/2 2:15,9.9,0,62,0,19.7,0,54.8,0,15.8,0,14.3,0
2004/1/2 2:30,9.9,0,61,0,19.6,0,54.5,0,15.8,0,14.3,0
2004/1/2 2:45,10.1,0,61,0,19.6,0,54.4,0,15.7,0,14.3,0
2004/1/2 3:00,10,0,60,0,19.6,0,54.1,0,15.7,0,13.7,0
2004/1/2 3:15,10.2,0,60,0,19.5,0,54,0,15.7,0,13.8,0
2004/1/2 3:30,10.2,0,60,0,19.5,0,53.9,0,15.7,0,13.8,0
2004/1/2 3:45,10.2,0,61,0,19.5,0,53.8,0,15.7,0,13.8,0
2004/1/2 4:00,10.4,0,60,0,19.5,0,53.6,0,15.7,0,13.9,0
2004/1/2 4:15,10.4,0,59,0,19.4,0,53.4,0,15.7,0,13.9,0
2004/1/2 4:30,10.2,0,60,0,19.4,0,53.2,0,15.7,0,13.9,0
2004/1/2 4:45,10.1,0,61,0,19.3,0,53.1,0,15.7,0,13.9,0
2004/1/2 5:00,10,0,61,0,19.3,0,53,0,15.7,0,13.9,0
2004/1/2 5:15,9.9,0,61,0,19.3,0,52.9,0,15.7,0,14,0
2004/1/2 5:30,10,0,61,0,19.3,0,52.8,0,15.7,0,14,0
2004/1/2 5:45,10.1,0,60,0,19.3,0,52.7,0,15.7,0,14,0
2004/1/2 6:00,10,0,61,0,19.3,0,52.6,0,15.7,0,14,0
2004/1/2 6:15,10,0,61,0,19.2,0,52.5,0,15.7,0,14,0
2004/1/2 6:30,10.1,0,60,0,19.2,0,52.4,0,15.7,0,14.1,0
2004/1/2 6:45,10.1,0,61,0,19.2,0,52.3,0,15.7,0,14.1,0
2004/1/2 7:00,10.2,0,61,0,19.1,0,52.3,0,15.7,0,14.1,0
2004/1/2 7:15,10.1,0,61,0,19.1,0,52.2,0,15.7,0,14.1,0
2004/1/2 7:30,10.1,0,61,0,19.1,0,52,0,15.7,0,14.2,0
2004/1/2 7:45,10.3,0,60,0,19.1,0,52,0,15.7,0,14.2,0
2004/1/2 8:00,10.3,0,61,0,19.1,0,51.8,0,15.7,0,14.2,0
2004/1/2 8:15,10.6,0,60,0,19.1,0,51.8,0,15.7,0,14.2,0
2004/1/2 8:30,10.4,0,61,0,19.1,0,51.8,0,15.7,0,14.2,0
2004/1/2 8:45,10.6,0,60,0,19.1,0,51.8,0,15.7,0,14.2,0
2004/1/2 9:00,10.7,0,60,0,19.2,0,53.8,0,15.7,0,14.3,0
2004/1/2 9:15,10.9,0,61,0,19.2,0,53.3,0,15.7,0,14.3,0
2004/1/2 9:30,11.3,0,66,0,19.3,0,53.4,0,15.7,0,14,0
2004/1/2 9:45,11.3,0,73,0,19.4,0,53.4,0,15.8,0,14,0
2004/1/2 10:00,11.2,0,79,0,19.5,0,53.3,0,15.8,0,14,0
2004/1/2 10:15,11,0,81,0,19.6,0,53,0,15.8,0,14,0
2004/1/2 10:30,10.7,0,84,0,19.2,0,54.4,0,15.8,0,14,0
2004/1/2 10:45,10.5,0,86,0,19.3,0,54,0,15.8,0,14.1,0
2004/1/2 11:00,10.6,0,86,0,19.4,0,54,0,15.8,0,14.1,0
2004/1/2 11:15,10.5,0,86,0,19.5,0,53.8,0,15.8,0,14.1,0
2004/1/2 11:30,10.4,0,88,0,19.5,0,53.9,0,15.8,0,14.1,0
2004/1/2 11:45,10.4,0,88,0,19.8,0,54.8,0,15.8,0,14.1,0
2004/1/2 12:00,10.6,0,87,0,19.7,0,54.4,0,15.8,0,14.2,0
2004/1/2 12:15,10.6,0,84,0,19.7,0,54.5,0,15.8,0,14.2,0
2004/1/2 12:30,10.8,0,83,0,19.6,0,54.9,0,15.8,0,14.2,0
2004/1/2 12:45,11,0,81,0,19.7,0,55,0,15.8,0,13.8,0
2004/1/2 13:00,11.2,0,73,0,19.7,0,54.8,0,15.8,0,13.8,0
2004/1/2 13:15,11.6,0,68,0,19.8,0,54,0,15.8,0,13.9,0
2004/1/2 13:30,11.6,0,66,0,20,0,53.3,0,15.8,0,13.9,0
2004/1/2 13:45,11.5,0,65,0,20,0,53,0,15.8,0,13.4,0
2004/1/2 14:00,11.7,0,66,0,19.9,0,53.2,0,15.8,0,13.5,0
2004/1/2 14:15,11.7,0,67,0,19.8,0,53,0,15.8,0,13.5,0
2004/1/2 14:30,11.7,0,65,0,19.8,0,53.2,0,15.8,0,13.5,0
2004/1/2 14:45,11.8,0,63,0,19.8,0,53.1,0,15.8,0,13.5,0
2004/1/2 15:00,11.7,0,63,0,19.8,0,53.2,0,15.8,0,13.6,0
2004/1/2 15:15,11.6,0,65,0,19.8,0,53.2,0,15.8,0,13.6,0
2004/1/2 15:30,11.6,0,63,0,19.8,0,53.3,0,15.8,0,13.6,0
2004/1/2 15:45,11.6,0,60,0,19.7,0,53.4,0,15.8,0,13.6,0
2004/1/2 16:00,11.7,0,59,0,19.8,0,53.2,0,15.8,0,13.7,0
2004/1/2 16:15,11.6,0,58,0,19.8,0,52.9,0,15.8,0,13.7,0
2004/1/2 16:30,11.6,0,57,0,19.8,0,52.6,0,15.8,0,13.7,0
2004/1/2 16:45,11.4,0,57,0,19.7,0,53,0,15.9,0,13.7,0
2004/1/2 17:00,11.3,0,56,0,19.9,0,55.7,0,15.8,0,13.8,0
2004/1/2 17:15,11.1,0,54,0,20,0,56.8,0,15.8,0,13.9,0
2004/1/2 17:30,11,0,53,0,19.9,0,56.8,0,15.8,0,13.9,0
2004/1/2 17:45,10.9,0,52,0,19.9,0,57.7,0,15.8,0,13.9,0
2004/1/2 18:00,10.7,0,49,0,19.6,0,54.3,0,15.8,0,13.9,0
2004/1/2 18:15,10.8,0,48,0,19.5,0,49.8,0,15.8,0,14,0
2004/1/2 18:30,10.8,0,48,0,19.3,0,52.5,0,15.8,0,14,0
2004/1/2 18:45,10.8,0,47,0,19.4,0,53,0,15.8,0,14,0
2004/1/2 19:00,10.7,0,48,0,19.5,0,53.4,0,15.8,0,13.8,0
2004/1/2 19:15,10.7,0,48,0,19.5,0,53.7,0,15.8,0,13.8,0
2004/1/2 19:30,10.6,0,48,0,19.6,0,53.9,0,15.8,0,13.8,0
2004/1/2 19:45,10.6,0,48,0,19.6,0,54.2,0,15.9,0,13.9,0
2004/1/2 20:00,10.4,0,52,0,19.6,0,54.3,0,15.9,0,13.9,0
2004/1/2 20:15,10,0,57,0,19.5,0,54.5,0,15.9,0,13.9,0
2004/1/2 20:30,10,0,58,0,19.5,0,54.7,0,15.9,0,13.6,0
2004/1/2 20:45,9.9,0,60,0,19.5,0,54.8,0,15.9,0,13.6,0
2004/1/2 21:00,9.8,0,61,0,19.5,0,54.8,0,15.9,0,13.6,0
2004/1/2 21:15,9.7,0,60,0,19.5,0,54.8,0,15.9,0,13.6,0
2004/1/2 21:30,9.8,0,60,0,19.5,0,54.8,0,15.9,0,13.7,0
2004/1/2 21:45,9.8,0,59,0,19.5,0,54.9,0,15.9,0,13.7,0
2004/1/2 22:00,9.8,0,59,0,19.5,0,54.9,0,15.8,0,13.7,0
2004/1/2 22:15,9.9,0,59,0,19.5,0,55,0,15.8,0,13.7,0
2004/1/2 22:30,9.8,0,59,0,19.5,0,55,0,15.8,0,13.8,0
2004/1/2 22:45,9.8,0,59,0,19.5,0,54.9,0,15.8,0,13.8,0
2004/1/2 23:00,9.7,0,58,0,19.5,0,54.9,0,15.8,0,13.8,0
2004/1/2 23:15,9.9,0,54,0,19.5,0,54.9,0,15.8,0,13.8,0
2004/1/2 23:30,10.1,0,53,0,19.5,0,54.9,0,15.8,0,13.9,0
2004/1/2 23:45,10,0,51,0,19.5,0,55,0,15.8,0,13.9,0
2004/1/3 0:00,10.1,0,53,0,19.5,0,55,0,15.8,0,13.9,0
2004/1/3 0:15,10.2,0,54,0,19.5,0,54.9,0,15.8,0,13.9,0
2004/1/3 0:30,10.1,0,54,0,19.5,0,54.9,0,15.8,0,13.9,0
2004/1/3 0:45,10,0,55,0,19.6,0,54.9,0,15.8,0,14,0
2004/1/3 1:00,9.9,0,56,0,19.6,0,54.9,0,15.8,0,14,0
2004/1/3 1:15,9.9,0,57,0,19.6,0,54.9,0,15.8,0,14,0
2004/1/3 1:30,9.9,0,58,0,19.6,0,57,0,15.8,0,14,0
2004/1/3 1:45,9.8,0,58,0,19.6,0,57.2,0,15.8,0,14.1,0
2004/1/3 2:00,9.7,0,57,0,19.6,0,56.9,0,15.9,0,14.1,0
2004/1/3 2:15,9.7,0,56,0,19.5,0,56.4,0,15.9,0,14.1,0
2004/1/3 2:30,9.4,0,55,0,19.4,0,57.5,0,15.9,0,14.1,0
2004/1/3 2:45,9.2,0,54,0,19.4,0,57.3,0,15.8,0,14.1,0
2004/1/3 3:00,9.4,0,54,0,19.3,0,56.7,0,15.8,0,14.2,0
2004/1/3 3:15,9.4,0,55,0,19.2,0,56.3,0,15.8,0,14.2,0
2004/1/3 3:30,9.2,0,55,0,19.1,0,55.8,0,15.8,0,14.2,0
2004/1/3 3:45,8.9,0,54,0,19.1,0,55.2,0,15.7,0,14.2,0
2004/1/3 4:00,8.9,0,52,0,19.1,0,54.8,0,15.7,0,14.3,0
2004/1/3 4:15,8.9,0,51,0,19.1,0,54.6,0,15.7,0,14.3,0
2004/1/3 4:30,9,0,51,0,19,0,54.3,0,15.7,0,14.3,0
2004/1/3 4:45,9.1,0,52,0,19,0,53.9,0,15.6,0,14.3,0
2004/1/3 5:00,9.2,0,51,0,18.9,0,53.7,0,15.6,0,14.3,0
2004/1/3 5:15,9.2,0,52,0,18.9,0,53.6,0,15.6,0,14.4,0
2004/1/3 5:30,9.3,0,52,0,18.9,0,53.4,0,15.6,0,14.4,0
2004/1/3 5:45,9.2,0,53,0,18.9,0,53.1,0,15.6,0,14.4,0
2004/1/3 6:00,9.2,0,54,0,18.9,0,52.9,0,15.5,0,14.4,0
2004/1/3 6:15,9.2,0,54,0,18.8,0,52.7,0,15.5,0,14.4,0
2004/1/3 6:30,9.2,0,55,0,18.8,0,52.7,0,15.5,0,14.4,0
2004/1/3 6:45,9.1,0,51,0,18.7,0,52.7,0,15.5,0,14.5,0
2004/1/3 7:00,9.2,0,49,0,18.7,0,52.6,0,15.4,0,14.5,0
2004/1/3 7:15,9.3,0,50,0,18.7,0,52.4,0,15.4,0,14.5,0
2004/1/3 7:30,9.1,0,52,0,18.7,0,52.3,0,15.4,0,14.5,0
2004/1/3 7:45,9,0,48,0,18.7,0,52.2,0,15.4,0,14.5,0
2004/1/3 8:00,8.8,0,47,0,18.7,0,52,0,15.4,0,14.5,0
2004/1/3 8:15,8.9,0,48,0,18.7,0,53.3,0,15.3,0,14.6,0
2004/1/3 8:30,9,0,46,0,18.8,0,53.8,0,15.3,0,14.6,0
2004/1/3 8:45,9,0,46,0,18.9,0,54.2,0,15.3,0,14.6,0
2004/1/3 9:00,9.2,0,46,0,19.2,0,53.6,0,15.3,0,14.6,0
2004/1/3 9:15,9.3,0,43,0,19.5,0,52.5,0,15.3,0,14.6,0
2004/1/3 9:30,9.2,0,42,0,19.7,0,51.7,0,15.3,0,13.8,0
2004/1/3 9:45,9.4,0,44,0,20.4,0,51.9,0,15.3,0,13.8,0
2004/1/3 10:00,9.5,0,44,0,19.8,0,44.5,0,15.4,0,13.8,0
2004/1/3 10:15,9.5,0,43,0,18.7,0,37.7,0,15.4,0,13.9,0
2004/1/3 10:30,9.7,0,43,0,19.7,0,41.7,0,15.4,0,13.9,0
2004/1/3 10:45,9.6,0,44,0,20.2,0,42.8,0,15.4,0,13.9,0
2004/1/3 11:00,9.5,0,47,0,20.3,0,44.2,0,15.5,0,13.9,0
2004/1/3 11:15,9.7,0,47,0,19.9,0,46.2,0,15.5,0,14,0
2004/1/3 11:30,9.8,0,47,0,20.1,0,46.7,0,15.5,0,14,0
2004/1/3 11:45,9.7,0,45,0,20.1,0,47.5,0,15.5,0,14,0
2004/1/3 12:00,10,0,45,0,20.6,0,46.9,0,15.6,0,14,0
2004/1/3 12:15,10,0,42,0,20.8,0,47.2,0,15.6,0,14,0
2004/1/3 12:30,10,0,44,0,20.7,0,47.7,0,15.6,0,14,0
2004/1/3 12:45,10.1,0,44,0,21,0,47.6,0,15.6,0,14.1,0
2004/1/3 13:00,10,0,44,0,20.9,0,48.2,0,15.6,0,14.1,0
2004/1/3 13:15,10.2,0,43,0,20.9,0,48,0,15.6,0,14.1,0
2004/1/3 13:30,10.2,0,42,0,20.8,0,45.2,0,15.6,0,14.1,0
2004/1/3 13:45,10.3,0,41,0,20.7,0,46.9,0,15.6,0,14.1,0
2004/1/3 14:00,10.2,0,44,0,20.3,0,42.5,0,15.6,0,14.1,0
2004/1/3 14:15,10.4,0,44,0,19.4,0,39.3,0,15.6,0,14.2,0
2004/1/3 14:30,10.6,0,45,0,18.6,0,36.5,0,15.6,0,14.2,0
2004/1/3 14:45,10.4,0,47,0,18.9,0,39.9,0,15.6,0,14.2,0
2004/1/3 15:00,10.4,0,47,0,19.1,0,41.6,0,15.6,0,14.2,0
2004/1/3 15:15,10.5,0,47,0,19.2,0,42.8,0,15.6,0,13.8,0
2004/1/3 15:30,10.6,0,47,0,19.2,0,44.9,0,15.6,0,13.8,0
2004/1/3 15:45,10.6,0,43,0,19.4,0,47.1,0,15.7,0,13.8,0
2004/1/3 16:00,10.6,0,43,0,19.3,0,46.7,0,15.8,0,13.8,0
2004/1/3 16:15,10.7,0,45,0,19.2,0,47.2,0,15.9,0,13.8,0
2004/1/3 16:30,10.6,0,46,0,19.1,0,48,0,15.9,0,13.8,0
2004/1/3 16:45,10.6,0,45,0,19.2,0,47.6,0,16,0,13.6,0
2004/1/3 17:00,10.5,0,46,0,19.2,0,47.9,0,16,0,13.7,0
2004/1/3 17:15,10.5,0,46,0,19.3,0,48.2,0,16,0,13.7,0
2004/1/3 17:30,10.3,0,44,0,19.2,0,48.7,0,16.1,0,13.7,0
2004/1/3 17:45,10.2,0,44,0,19.2,0,49.3,0,16.2,0,13.7,0
2004/1/3 18:00,10.1,0,45,0,19.3,0,49.8,0,16.2,0,13.8,0
2004/1/3 18:15,10.1,0,47,0,19.2,0,48.4,0,16.2,0,13.2,0
2004/1/3 18:30,10.2,0,48,0,19.2,0,47.8,0,16.2,0,13.2,0
2004/1/3 18:45,9.9,0,51,0,19.2,0,47.5,0,16.2,0,13.2,0
2004/1/3 19:00,9.7,0,53,0,19.2,0,48.3,0,16.2,0,13.2,0
2004/1/3 19:15,9.7,0,53,0,19.2,0,48.1,0,16.2,0,13.3,0
2004/1/3 19:30,9.8,0,53,0,19.1,0,47.5,0,16.2,0,12.3,0
2004/1/3 19:45,10,0,53,0,19.5,0,51.1,0,16.2,0,12.3,0
2004/1/3 20:00,9.8,0,54,0,19.7,0,52.3,0,16.2,0,12.4,0
2004/1/3 20:15,9.7,0,55,0,19.8,0,53.7,0,16.2,0,12.4,0
2004/1/3 20:30,9.7,0,57,0,19.8,0,54.4,0,16.1,0,12.5,0
2004/1/3 20:45,9.5,0,58,0,19.9,0,54.3,0,16.1,0,12.5,0
2004/1/3 21:00,9.5,0,58,0,19.9,0,54.9,0,16.1,0,12.5,0
2004/1/3 21:15,9.5,0,58,0,19.9,0,55.5,0,16.1,0,12.6,0
2004/1/3 21:30,9.5,0,58,0,19.9,0,55.6,0,16.1,0,12.6,0
2004/1/3 21:45,9.6,0,58,0,19.9,0,55.6,0,16.1,0,12.7,0
2004/1/3 22:00,9.5,0,58,0,19.9,0,55.3,0,16,0,12.7,0
2004/1/3 22:15,9.4,0,60,0,20,0,56.1,0,16.1,0,12.7,0
2004/1/3 22:30,9.4,0,60,0,19.9,0,56.4,0,16,0,12.8,0
2004/1/3 22:45,9.2,0,60,0,19.9,0,56.5,0,16.1,0,12.3,0
2004/1/3 23:00,9.3,0,59,0,20,0,57.8,0,16.1,0,12.3,0
2004/1/3 23:15,9.1,0,60,0,20,0,58.4,0,16.1,0,12.4,0
2004/1/3 23:30,9.1,0,59,0,20.2,0,58.3,0,16.1,0,12.4,0
2004/1/3 23:45,9.1,0,59,0,20,0,55.9,0,16.1,0,12.5,0
2004/1/4 0:00,8.9,0,60,0,19.8,0,55,0,16.1,0,12.5,0
2004/1/4 0:15,8.8,0,61,0,19.8,0,59.6,0,16.1,0,12.6,0
2004/1/4 0:30,8.7,0,61,0,19.9,0,69.5,0,16.1,0,12.6,0
2004/1/4 0:45,8.4,0,61,0,19.8,0,66.7,0,16.1,0,12.6,0
2004/1/4 1:00,8.4,0,61,0,19.7,0,65.3,0,16.1,0,12.5,0
2004/1/4 1:15,8.6,0,62,0,19.6,0,64.8,0,16.1,0,12.5,0
2004/1/4 1:30,8.1,0,63,0,19.7,0,65.2,0,16.1,0,12.6,0
2004/1/4 1:45,8.2,0,62,0,19.9,0,65.2,0,16.1,0,12.6,0
2004/1/4 2:00,8.4,0,61,0,19.6,0,63.7,0,16.2,0,12.6,0
2004/1/4 2:15,8.2,0,62,0,19.5,0,62.7,0,16.2,0,12.7,0
2004/1/4 2:30,8.2,0,61,0,19.4,0,61.8,0,16.2,0,12.7,0
2004/1/4 2:45,8.4,0,60,0,19.4,0,61.2,0,16.2,0,12.8,0
2004/1/4 3:00,8.2,0,60,0,19.4,0,60.9,0,16.2,0,12.8,0
2004/1/4 3:15,8.4,0,60,0,19.3,0,60.1,0,16.2,0,12.9,0
2004/1/4 3:30,8.2,0,60,0,19.4,0,60.1,0,16.2,0,12.9,0
2004/1/4 3:45,8.1,0,60,0,19.4,0,60.3,0,16.2,0,13,0
2004/1/4 4:00,8.1,0,61,0,19.4,0,60.2,0,16.2,0,13,0
2004/1/4 4:15,8.1,0,61,0,19.5,0,61.9,0,16.2,0,13.1,0
2004/1/4 4:30,8.2,0,61,0,19.5,0,65.2,0,16.1,0,13.3,0
2004/1/4 4:45,8.2,0,61,0,19.4,0,63.4,0,16.1,0,13.3,0
2004/1/4 5:00,8.1,0,60,0,19.3,0,62.3,0,16.1,0,13.4,0
2004/1/4 5:15,7.8,0,61,0,19.3,0,61.6,0,16.1,0,13.4,0
2004/1/4 5:30,7.9,0,61,0,19.2,0,60.9,0,16.1,0,13.4,0
2004/1/4 5:45,7.9,0,61,0,19.2,0,60.3,0,16,0,13.5,0
2004/1/4 6:00,7.9,0,60,0,19.2,0,59.8,0,16,0,13.5,0
2004/1/4 6:15,8,0,60,0,19.1,0,59.4,0,16,0,13.5,0
2004/1/4 6:30,7.8,0,61,0,19.1,0,59.1,0,16,0,13.6,0
2004/1/4 6:45,8,0,61,0,19,0,58.7,0,15.9,0,13.6,0
2004/1/4 7:00,7.9,0,61,0,19,0,58.4,0,15.9,0,13.7,0
2004/1/4 7:15,8.1,0,61,0,19,0,58.2,0,15.9,0,13.7,0
2004/1/4 7:30,8.1,0,61,0,19,0,57.9,0,15.8,0,13.7,0
2004/1/4 7:45,8,0,61,0,18.9,0,57.7,0,15.8,0,13.7,0
2004/1/4 8:00,8.1,0,62,0,18.9,0,57.5,0,15.8,0,13.8,0
2004/1/4 8:15,8.2,0,62,0,18.9,0,57.3,0,15.8,0,13.8,0
2004/1/4 8:30,8.1,0,62,0,18.9,0,57.1,0,15.7,0,13.8,0
2004/1/4 8:45,8.4,0,61,0,18.9,0,57,0,15.7,0,13.9,0
2004/1/4 9:00,8.8,0,59,0,18.9,0,56.9,0,15.7,0,13.9,0
2004/1/4 9:15,9,0,59,0,18.9,0,56.8,0,15.7,0,13.9,0
2004/1/4 9:30,8.9,0,59,0,19.2,0,59.1,0,15.7,0,13.9,0
2004/1/4 9:45,9.1,0,59,0,19.4,0,57.8,0,15.7,0,14,0
2004/1/4 10:00,9.4,0,57,0,20,0,61.6,0,15.7,0,13.4,0
2004/1/4 10:15,9.7,0,56,0,19.9,0,58.3,0,15.7,0,12.9,0
2004/1/4 10:30,10,0,55,0,19.8,0,57.3,0,15.7,0,12.9,0
2004/1/4 10:45,10.2,0,54,0,19.8,0,58.4,0,15.7,0,12.1,0
2004/1/4 11:00,10.5,0,54,0,20.1,0,58.1,0,15.8,0,12.2,0
2004/1/4 11:15,10.8,0,54,0,20.3,0,57.9,0,15.8,0,12.2,0
2004/1/4 11:30,11,0,51,0,20.6,0,57.6,0,15.8,0,12.3,0
2004/1/4 11:45,11.2,0,48,0,20.6,0,56.3,0,15.9,0,12.2,0
2004/1/4 12:00,11.4,0,46,0,20.5,0,56.3,0,16.3,0,12.3,0
2004/1/4 12:15,11.7,0,44,0,20.4,0,56.7,0,16.7,0,12.4,0
2004/1/4 12:30,11.5,0,46,0,20.4,0,56.1,0,16.6,0,12.4,0
2004/1/4 12:45,11.6,0,46,0,20.4,0,55.7,0,16.5,0,12.2,0
2004/1/4 13:00,11.6,0,46,0,20.5,0,55.3,0,16.5,0,12.3,0
2004/1/4 13:15,11.7,0,45,0,20.4,0,55.1,0,16.5,0,12.3,0
2004/1/4 13:30,11.6,0,43,0,20.4,0,54.9,0,16.5,0,12.3,0
2004/1/4 13:45,11.6,0,43,0,20.3,0,54.9,0,16.5,0,12.4,0
2004/1/4 14:00,11.7,0,42,0,20.2,0,54.9,0,16.5,0,12.4,0
2004/1/4 14:15,11.7,0,42,0,19.9,0,55.4,0,16.5,0,12.5,0
2004/1/4 14:30,11.8,0,44,0,19.7,0,55.7,0,16.5,0,12.5,0
2004/1/4 14:45,11.9,0,45,0,19.6,0,55.9,0,16.4,0,12.5,0
2004/1/4 15:00,11.6,0,48,0,19.5,0,56,0,16.4,0,12.6,0
2004/1/4 15:15,11.6,0,47,0,19.4,0,56,0,16.5,0,12.6,0
2004/1/4 15:30,11.5,0,48,0,19.4,0,56,0,16.4,0,12.7,0
2004/1/4 15:45,11.6,0,49,0,19.4,0,55.9,0,16.5,0,12.7,0
2004/1/4 16:00,11.5,0,50,0,19.3,0,55.9,0,16.4,0,12.7,0
2004/1/4 16:15,11.6,0,50,0,19.3,0,55.9,0,16.4,0,12.8,0
2004/1/4 16:30,11.5,0,49,0,19.2,0,55.9,0,16.4,0,12.8,0
2004/1/4 16:45,11.5,0,50,0,19.2,0,55.8,0,16.4,0,12.9,0
2004/1/4 17:00,11.4,0,50,0,19.1,0,55.9,0,16.4,0,12.9,0
2004/1/4 17:15,11.3,0,49,0,19.1,0,55.8,0,16.4,0,12.9,0
2004/1/4 17:30,11.3,0,50,0,19.1,0,55.8,0,16.4,0,13,0
2004/1/4 17:45,11.3,0,51,0,19,0,55.8,0,16.4,0,13,0
2004/1/4 18:00,11.1,0,52,0,19,0,55.7,0,16.4,0,13.1,0
2004/1/4 18:15,11,0,54,0,19,0,55.8,0,16.4,0,13.1,0
2004/1/4 18:30,10.9,0,56,0,19,0,55.7,0,16.4,0,13.1,0
2004/1/4 18:45,10.7,0,57,0,19,0,55.7,0,16.4,0,13.2,0
2004/1/4 19:00,10.6,0,57,0,18.9,0,55.7,0,16.4,0,13.2,0
2004/1/4 19:15,10.6,0,58,0,18.9,0,55.7,0,16.4,0,13.2,0
2004/1/4 19:30,10.5,0,59,0,18.9,0,55.7,0,16.4,0,13.3,0
2004/1/4 19:45,10.3,0,60,0,18.9,0,55.6,0,16.4,0,13.3,0
2004/1/4 20:00,10.1,0,61,0,18.9,0,55.5,0,16.3,0,13.4,0
2004/1/4 20:15,10.1,0,62,0,18.8,0,55.5,0,16.4,0,13.4,0
2004/1/4 20:30,10.1,0,61,0,18.8,0,55.6,0,16.3,0,13.4,0
2004/1/4 20:45,9.9,0,62,0,18.8,0,55.5,0,16.3,0,13.5,0
2004/1/4 21:00,9.7,0,63,0,18.8,0,55.4,0,16.3,0,13.5,0
2004/1/4 21:15,9.5,0,64,0,18.8,0,55.4,0,16.3,0,13.5,0
2004/1/4 21:30,9.6,0,64,0,18.9,0,55.1,0,16.3,0,13.6,0
2004/1/4 21:45,9.5,0,63,0,19,0,54.9,0,16.2,0,12.8,0
2004/1/4 22:00,9.5,0,64,0,19,0,54.7,0,16.2,0,12.9,0
2004/1/4 22:15,9.2,0,65,0,19.1,0,54.5,0,16.1,0,13,0
2004/1/4 22:30,9.1,0,65,0,19.1,0,54.7,0,16.1,0,13,0
2004/1/4 22:45,9.2,0,65,0,19.1,0,54.8,0,16.1,0,13,0
2004/1/4 23:00,9.1,0,65,0,19.1,0,55.3,0,16.1,0,13.1,0
2004/1/4 23:15,9,0,64,0,19.1,0,55.4,0,16.1,0,13.1,0
2004/1/4 23:30,8.7,0,64,0,19.1,0,55.4,0,16.1,0,13.1,0
2004/1/4 23:45,8.8,0,64,0,19.1,0,55.3,0,16.1,0,13.1,0
2004/1/5 0:00,8.6,0,65,0,19.1,0,55.2,0,16.2,0,13.2,0
2004/1/5 0:15,8.8,0,66,0,19.1,0,55.2,0,16.2,0,13.2,0
2004/1/5 0:30,8.9,0,62,0,19,0,54.7,0,16.2,0,13.2,0
2004/1/5 0:45,8.9,0,62,0,18.9,0,54.8,0,16.2,0,13.3,0
2004/1/5 1:00,8.9,0,63,0,18.8,0,54.9,0,16.2,0,12.8,0
2004/1/5 1:15,8.9,0,63,0,18.7,0,55,0,16.2,0,12.9,0
2004/1/5 1:30,8.7,0,63,0,18.8,0,54.8,0,16.2,0,13,0
2004/1/5 1:45,8.3,0,65,0,18.8,0,54.8,0,16.2,0,13,0
2004/1/5 2:00,8.4,0,65,0,18.8,0,54.7,0,16.2,0,13,0
2004/1/5 2:15,8.5,0,64,0,18.7,0,54.8,0,16.2,0,13,0
2004/1/5 2:30,8.2,0,66,0,18.7,0,54.7,0,16.2,0,13.1,0
2004/1/5 2:45,8.3,0,65,0,18.7,0,54.8,0,16.2,0,13.1,0
2004/1/5 3:00,8.1,0,66,0,18.6,0,54.8,0,16.2,0,13.1,0
2004/1/5 3:15,8.2,0,66,0,18.6,0,54.7,0,16.2,0,13.2,0
2004/1/5 3:30,7.9,0,66,0,18.6,0,54.6,0,16.1,0,13.2,0
2004/1/5 3:45,7.9,0,67,0,18.6,0,54.6,0,16.1,0,13.3,0
2004/1/5 4:00,7.9,0,66,0,18.6,0,54.5,0,16.1,0,13.3,0
2004/1/5 4:15,8.1,0,66,0,18.5,0,54.7,0,16.1,0,13.3,0
2004/1/5 4:30,8.1,0,65,0,18.5,0,54.7,0,16.1,0,13.3,0
2004/1/5 4:45,8,0,65,0,18.5,0,54.5,0,16.1,0,13.4,0
2004/1/5 5:00,7.9,0,67,0,18.5,0,54.5,0,16.1,0,13.4,0
2004/1/5 5:15,7.5,0,67,0,18.5,0,54.5,0,16.1,0,13.4,0
2004/1/5 5:30,7.9,0,66,0,18.4,0,54.5,0,16.1,0,13.5,0
2004/1/5 5:45,7.9,0,66,0,18.4,0,54.6,0,16.1,0,13.5,0
2004/1/5 6:00,8,0,65,0,18.4,0,54.5,0,16.1,0,13.5,0
2004/1/5 6:15,7.9,0,66,0,18.4,0,54.4,0,16.1,0,13.5,0
2004/1/5 6:30,7.8,0,67,0,18.4,0,54.4,0,16.1,0,13.6,0
2004/1/5 6:45,7.8,0,66,0,18.4,0,54.5,0,16.1,0,13.6,0
2004/1/5 7:00,8.1,0,66,0,18.4,0,54.5,0,16.1,0,13.6,0
2004/1/5 7:15,7.9,0,67,0,18.4,0,54.4,0,16.1,0,13.7,0
2004/1/5 7:30,7.9,0,67,0,18.4,0,54.3,0,16,0,13.7,0
2004/1/5 7:45,8.3,0,67,0,18.4,0,54.3,0,16,0,13.7,0
2004/1/5 8:00,8.4,0,66,0,18.3,0,54.6,0,16,0,13.4,0
2004/1/5 8:15,8.7,0,64,0,18.3,0,54.7,0,16,0,13.4,0
2004/1/5 8:30,8.7,0,64,0,18.3,0,54.6,0,16,0,13.5,0
2004/1/5 8:45,8.9,0,64,0,18.3,0,54.6,0,16,0,13.5,0
2004/1/5 9:00,9.2,0,63,0,18.3,0,54.7,0,16,0,13.5,0
2004/1/5 9:15,9.2,0,63,0,18.4,0,54.7,0,16,0,13.5,0
2004/1/5 9:30,9.4,0,63,0,18.4,0,54.6,0,16,0,13.6,0
2004/1/5 9:45,9.8,0,61,0,18.5,0,54.5,0,16,0,13.6,0
2004/1/5 10:00,10.1,0,60,0,18.5,0,54.4,0,16,0,13.6,0
2004/1/5 10:15,10.3,0,59,0,18.6,0,54.2,0,16,0,13.7,0
2004/1/5 10:30,10.6,0,57,0,19,0,54,0,16,0,13.7,0
2004/1/5 10:45,10.8,0,51,0,19.2,0,53.5,0,16.1,0,13.7,0
2004/1/5 11:00,11,0,48,0,19.4,0,52.9,0,16.1,0,13.7,0
2004/1/5 11:15,11.2,0,44,0,19.8,0,52.1,0,16.1,0,13.8,0
2004/1/5 11:30,11.4,0,42,0,19.8,0,51.8,0,16.1,0,13.8,0
2004/1/5 11:45,11.5,0,41,0,19.7,0,51.8,0,16.1,0,13.8,0
2004/1/5 12:00,11.4,0,40,0,19.4,0,52.7,0,16.1,0,13.9,0
2004/1/5 12:15,11.5,0,41,0,19.3,0,53,0,16.1,0,13.9,0
2004/1/5 12:30,11.3,0,41,0,19.3,0,52.9,0,16.1,0,13.9,0
2004/1/5 12:45,11.5,0,41,0,19.3,0,53.1,0,16.1,0,13.9,0
2004/1/5 13:00,11.6,0,42,0,19.6,0,52.3,0,16.1,0,14,0
2004/1/5 13:15,11.6,0,44,0,19.9,0,51.7,0,16.1,0,14,0
2004/1/5 13:30,11.7,0,44,0,20,0,51.4,0,16.2,0,14,0
2004/1/5 13:45,11.7,0,46,0,20,0,51.3,0,16.2,0,14,0